TimeMDT,TemperatureF,Dew PointF,Humidity,Sea Level PressureIn,VisibilityMPH,Wind Direction,Wind SpeedMPH,Gust SpeedMPH,PrecipitationIn,Events,Conditions,WindDirDegrees,DateUTC
12:53 AM,23.0,15.1,72,30.46,-9999.0,Calm,Calm,-,N/A,,Clear,0,2013-05-03 06:53:00
1:53 AM,24.1,16.0,71,30.41,-9999.0,SSW,5.8,-,N/A,,Clear,200,2013-05-03 07:53:00
2:53 AM,19.9,15.1,81,30.40,-9999.0,SSE,4.6,-,N/A,,Clear,160,2013-05-03 08:53:00
3:53 AM,21.9,15.1,75,30.35,-9999.0,SE,4.6,-,N/A,,Clear,130,2013-05-03 09:53:00
4:53 AM,21.9,15.1,75,30.32,-9999.0,South,3.5,-,N/A,,Clear,180,2013-05-03 10:53:00
5:53 AM,19.9,15.1,81,30.32,-9999.0,SE,9.2,-,N/A,,Clear,140,2013-05-03 11:53:00
6:53 AM,25.0,17.1,72,30.29,-9999.0,SE,9.2,-,N/A,,Clear,140,2013-05-03 12:53:00
7:53 AM,30.9,19.9,64,30.26,-9999.0,SE,9.2,-,N/A,,Clear,130,2013-05-03 13:53:00
8:53 AM,37.0,19.9,50,30.23,-9999.0,SE,8.1,-,N/A,,Clear,130,2013-05-03 14:53:00
9:53 AM,42.1,19.9,41,30.21,-9999.0,ESE,5.8,-,N/A,,Clear,120,2013-05-03 15:53:00
10:53 AM,46.9,18.0,32,30.16,10.0,Variable,6.9,-,N/A,,Clear,0,2013-05-03 16:53:00
11:53 AM,51.1,14.0,23,30.13,10.0,North,13.8,20.7,N/A,,Clear,360,2013-05-03 17:53:00
12:53 PM,53.1,14.0,21,30.11,10.0,NNW,9.2,23.0,N/A,,Clear,340,2013-05-03 18:53:00
1:53 PM,55.0,14.0,20,30.07,10.0,NNW,16.1,21.9,N/A,,Clear,340,2013-05-03 19:53:00
3:53 PM,54.0,14.0,21,30.04,10.0,WNW,6.9,-,N/A,,Clear,300,2013-05-03 21:53:00
4:53 PM,55.0,14.0,20,30.01,10.0,NNW,6.9,18.4,N/A,,Clear,340,2013-05-03 22:53:00
5:23 PM,51.8,24.8,35,30.10,10.0,East,15.0,-,N/A,,Clear,80,2013-05-03 23:23:00
5:53 PM,50.0,24.1,36,30.07,10.0,ESE,12.7,-,N/A,,Clear,110,2013-05-03 23:53:00
6:53 PM,48.0,24.1,39,30.05,10.0,East,12.7,-,N/A,,Clear,100,2013-05-04 00:53:00
7:53 PM,45.0,26.1,48,30.05,10.0,SE,13.8,-,N/A,,Clear,140,2013-05-04 01:53:00
8:53 PM,41.0,28.0,60,30.06,10.0,SE,9.2,-,N/A,,Partly Cloudy,140,2013-05-04 02:53:00
9:53 PM,39.9,26.1,58,30.04,10.0,ESE,6.9,-,N/A,,Mostly Cloudy,110,2013-05-04 03:53:00
10:53 PM,41.0,24.1,51,30.00,10.0,South,6.9,-,N/A,,Overcast,170,2013-05-04 04:53:00
11:53 PM,39.0,23.0,53,29.99,10.0,SSE,10.4,-,N/A,,Mostly Cloudy,160,2013-05-04 05:53:00